TimeEDT,TemperatureF,Dew PointF,Humidity,Sea Level PressureIn,VisibilityMPH,Wind Direction,Wind SpeedMPH,Gust SpeedMPH,PrecipitationIn,Events,Conditions,WindDirDegrees,DateUTC
12:15 AM,64.4,64.4,100,30.21,7.0,Calm,Calm,-,N/A,,Clear,0,2012-10-13 04:15:00
12:35 AM,64.4,62.6,94,30.21,5.0,Calm,Calm,-,N/A,,Clear,0,2012-10-13 04:35:00
12:55 AM,64.4,62.6,94,30.21,5.0,Calm,Calm,-,N/A,,Clear,0,2012-10-13 04:55:00
1:35 AM,64.4,62.6,94,30.20,5.0,Calm,Calm,-,N/A,,Clear,0,2012-10-13 05:35:00
1:55 AM,62.6,62.6,100,30.21,5.0,Calm,Calm,-,N/A,,Clear,0,2012-10-13 05:55:00
2:15 AM,62.6,62.6,100,30.20,5.0,Calm,Calm,-,N/A,,Clear,0,2012-10-13 06:15:00
2:35 AM,62.6,62.6,100,30.19,3.0,Calm,Calm,-,N/A,,Clear,0,2012-10-13 06:35:00
2:55 AM,60.8,60.8,100,30.20,2.0,Calm,Calm,-,N/A,,Clear,0,2012-10-13 06:55:00
3:15 AM,62.6,60.8,94,30.20,4.0,Calm,Calm,-,N/A,,Clear,0,2012-10-13 07:15:00
3:35 AM,62.6,62.6,100,30.20,5.0,East,3.5,-,N/A,,Clear,80,2012-10-13 07:35:00
3:55 AM,62.6,60.8,94,30.19,5.0,East,3.5,-,N/A,,Clear,80,2012-10-13 07:55:00
4:15 AM,62.6,60.8,94,30.19,5.0,Calm,Calm,-,N/A,,Clear,0,2012-10-13 08:15:00
4:35 AM,62.6,60.8,94,30.20,5.0,Calm,Calm,-,N/A,,Scattered Clouds,0,2012-10-13 08:35:00
4:55 AM,60.8,60.8,100,30.20,5.0,Calm,Calm,-,N/A,,Scattered Clouds,0,2012-10-13 08:55:00
5:15 AM,60.8,60.8,100,30.21,5.0,ENE,3.5,-,N/A,,Clear,70,2012-10-13 09:15:00
5:35 AM,60.8,60.8,100,30.21,5.0,North,-9999.0,-,N/A,,Clear,0,2012-10-13 09:35:00
5:55 AM,60.8,60.8,100,30.22,5.0,ENE,3.5,-,N/A,,Scattered Clouds,60,2012-10-13 09:55:00
6:15 AM,62.6,60.8,94,30.23,7.0,North,-9999.0,-,N/A,,Scattered Clouds,0,2012-10-13 10:15:00
6:35 AM,62.6,62.6,100,30.24,10.0,North,-9999.0,-,N/A,,Mostly Cloudy,0,2012-10-13 10:35:00
6:55 AM,62.6,62.6,100,30.24,7.0,ENE,3.5,-,N/A,,Overcast,60,2012-10-13 10:55:00
7:35 AM,62.6,60.8,94,30.25,10.0,North,-9999.0,-,N/A,,Scattered Clouds,0,2012-10-13 11:35:00
7:55 AM,62.6,60.8,94,30.26,10.0,North,-9999.0,-,N/A,,Clear,0,2012-10-13 11:55:00
8:15 AM,62.6,62.6,100,30.26,10.0,ENE,4.6,-,N/A,,Clear,60,2012-10-13 12:15:00
8:35 AM,64.4,62.6,94,30.27,10.0,ENE,4.6,-,N/A,,Clear,60,2012-10-13 12:35:00
8:55 AM,66.2,62.6,88,30.27,10.0,ENE,4.6,-,N/A,,Clear,60,2012-10-13 12:55:00
9:55 AM,71.6,62.6,73,30.29,10.0,ENE,9.2,-,N/A,,Clear,70,2012-10-13 13:55:00
10:15 AM,73.4,62.6,69,30.29,10.0,East,8.1,-,N/A,,Clear,80,2012-10-13 14:15:00
10:55 AM,75.2,62.6,65,30.29,10.0,ENE,10.4,-,N/A,,Clear,70,2012-10-13 14:55:00
11:15 AM,77.0,62.6,61,30.29,10.0,East,10.4,17.3,N/A,,Clear,80,2012-10-13 15:15:00
11:55 AM,78.8,62.6,57,30.29,10.0,East,15.0,20.7,N/A,,Clear,100,2012-10-13 15:55:00
12:15 PM,78.8,62.6,57,30.29,10.0,ESE,11.5,-,N/A,,Clear,110,2012-10-13 16:15:00
12:35 PM,80.6,62.6,54,30.28,10.0,East,11.5,18.4,N/A,,Clear,90,2012-10-13 16:35:00
12:55 PM,80.6,62.6,54,30.27,10.0,ENE,10.4,16.1,N/A,,Scattered Clouds,60,2012-10-13 16:55:00
1:15 PM,80.6,62.6,54,30.27,10.0,ENE,11.5,-,N/A,,Mostly Cloudy,70,2012-10-13 17:15:00
1:35 PM,82.4,62.6,51,30.25,10.0,SE,11.5,18.4,N/A,,Scattered Clouds,130,2012-10-13 17:35:00
1:55 PM,82.4,64.4,54,30.24,10.0,ENE,10.4,16.1,N/A,,Scattered Clouds,70,2012-10-13 17:55:00
2:15 PM,82.4,64.4,54,30.23,10.0,ENE,11.5,17.3,N/A,,Scattered Clouds,70,2012-10-13 18:15:00
2:35 PM,80.6,62.6,54,30.23,10.0,East,8.1,-,N/A,,Scattered Clouds,100,2012-10-13 18:35:00
2:55 PM,82.4,62.6,51,30.21,10.0,East,11.5,19.6,N/A,,Scattered Clouds,90,2012-10-13 18:55:00
3:15 PM,82.4,64.4,54,30.21,10.0,East,12.7,16.1,N/A,,Mostly Cloudy,80,2012-10-13 19:15:00
3:35 PM,82.4,64.4,54,30.21,10.0,East,8.1,16.1,N/A,,Scattered Clouds,90,2012-10-13 19:35:00
3:55 PM,78.8,64.4,61,30.21,10.0,ENE,9.2,-,N/A,,Scattered Clouds,70,2012-10-13 19:55:00
4:15 PM,78.8,64.4,61,30.20,10.0,ENE,10.4,-,N/A,,Scattered Clouds,60,2012-10-13 20:15:00
4:35 PM,82.4,66.2,58,30.20,10.0,ENE,13.8,17.3,N/A,,Scattered Clouds,70,2012-10-13 20:35:00
4:55 PM,80.6,66.2,61,30.20,10.0,East,10.4,-,N/A,,Scattered Clouds,80,2012-10-13 20:55:00
5:15 PM,78.8,64.4,61,30.20,10.0,East,11.5,-,N/A,,Scattered Clouds,100,2012-10-13 21:15:00
5:35 PM,78.8,66.2,65,30.20,10.0,East,10.4,-,N/A,,Scattered Clouds,90,2012-10-13 21:35:00
5:55 PM,75.2,66.2,73,30.21,10.0,East,9.2,16.1,N/A,,Scattered Clouds,90,2012-10-13 21:55:00
6:15 PM,77.0,66.2,69,30.21,10.0,East,12.7,17.3,N/A,,Clear,90,2012-10-13 22:15:00
6:35 PM,75.2,66.2,73,30.22,10.0,East,9.2,-,N/A,,Scattered Clouds,90,2012-10-13 22:35:00
6:55 PM,73.4,66.2,78,30.22,10.0,East,12.7,18.4,N/A,,Mostly Cloudy,80,2012-10-13 22:55:00
7:35 PM,71.6,66.2,83,30.23,10.0,East,11.5,18.4,N/A,,Scattered Clouds,90,2012-10-13 23:35:00
8:15 PM,71.6,66.2,83,30.24,10.0,East,11.5,-,N/A,,Scattered Clouds,80,2012-10-14 00:15:00
8:35 PM,69.8,64.4,83,30.24,10.0,East,9.2,-,N/A,,Clear,80,2012-10-14 00:35:00
8:55 PM,69.8,64.4,83,30.24,10.0,ENE,9.2,-,N/A,,Clear,60,2012-10-14 00:55:00
9:15 PM,69.8,64.4,83,30.24,10.0,ENE,6.9,-,N/A,,Clear,70,2012-10-14 01:15:00
9:35 PM,68.0,64.4,88,30.24,10.0,ENE,6.9,-,N/A,,Clear,60,2012-10-14 01:35:00
9:55 PM,68.0,64.4,88,30.25,10.0,ENE,6.9,-,N/A,,Clear,60,2012-10-14 01:55:00
10:15 PM,68.0,64.4,88,30.25,10.0,ENE,5.8,-,N/A,,Clear,60,2012-10-14 02:15:00
10:35 PM,66.2,62.6,88,30.25,10.0,NE,5.8,-,N/A,,Clear,50,2012-10-14 02:35:00
10:55 PM,66.2,62.6,88,30.24,10.0,ENE,5.8,-,N/A,,Clear,60,2012-10-14 02:55:00
11:15 PM,66.2,62.6,88,30.24,10.0,ENE,6.9,-,N/A,,Clear,60,2012-10-14 03:15:00
11:35 PM,66.2,62.6,88,30.24,10.0,ENE,5.8,-,N/A,,Clear,60,2012-10-14 03:35:00
11:55 PM,64.4,62.6,94,30.24,10.0,ENE,4.6,-,N/A,,Clear,60,2012-10-14 03:55:00